RH
30 30 30 30 28 34 33 26 25 24 23 22 22 24 27 30 33 30 25 22 21 21 21 20 61 64 65 68 69 72 73 74 74 75 78 78 88 87 97 99 100 99 97 98 99 85 87 83 90
29 33 33 41 37 34 32 25 25 21 18 17 22 22 26 31 36 33 27 22 21 21 20 26 60 60 61 66 65 66 66 69 68 70 74 77 76 87 88 98 100 100 99 98 98 91 93 85 82
31 35 33 35 38 38 33 25 26 20 15 14 20 22 27 33 37 31 24 22 21 21 20 46 55 57 57 63 63 63 62 63 63 65 69 73 74 76 84 90 99 100 98 99 98 99 97 84 86
30 35 35 27 22 20 26 23 20 22 17 12 10 25 29 29 27 27 22 20 20 20 20 40 50 53 54 58 61 61 62 60 60 62 63 63 67 69 71 84 92 99 99 99 98 100 99 91 92
33 42 36 28 21 20 20 17 15 18 19 11 8 21 32 27 25 24 21 20 20 21 21 25 45 47 49 53 59 60 60 60 58 60 61 59 58 64 69 72 84 88 100 100 99 100 100 99 95
44 39 34 30 24 19 18 14 12 11 9 9 10 12 34 27 24 23 20 20 21 22 22 22 25 38 44 48 54 56 57 57 56 57 59 58 57 60 62 68 72 80 94 100 98 99 100 100 99
35 34 31 28 26 22 18 12 10 11 10 11 10 12 32 31 26 24 21 21 23 24 24 23 22 20 19 27 48 50 52 52 53 51 54 51 42 48 60 61 64 75 80 98 98 98 98 100 100
45 31 20 24 28 24 17 11 12 10 11 10 10 16 27 30 27 24 23 22 24 26 27 25 24 20 19 21 26 30 35 42 42 32 26 19 17 16 18 39 62 64 74 81 99 97 94 99 99
30 33 24 17 22 20 15 13 12 12 12 12 11 12 14 25 28 27 26 25 25 28 28 26 26 23 21 20 24 23 22 23 22 22 23 22 16 17 19 22 59 58 44 76 74 89 88 98 99
39 33 21 20 18 17 15 14 15 13 14 15 14 23 27 29 29 27 28 27 27 28 29 27 26 24 26 24 24 25 25 24 25 25 26 24 19 19 20 19 25 21 36 36 59 88 80 98 100
24 29 20 30 21 19 18 16 18 16 15 16 17 21 28 28 27 28 27 26 24 26 28 26 25 27 29 29 28 27 27 27 27 28 28 26 23 22 23 22 21 21 33 35 48 81 78 86 100
21 28 25 30 20 19 18 19 17 18 13 14 17 19 25 26 29 28 28 26 25 26 27 26 27 28 30 30 31 30 29 28 29 29 30 28 27 30 26 27 26 27 35 44 52 65 85 81 100
18 22 27 23 19 18 19 19 19 21 18 16 15 17 19 18 18 18 19 21 25 27 26 28 29 30 31 32 32 32 32 29 31 31 31 31 32 36 28 28 32 33 35 50 52 60 82 83 98
22 26 24 22 21 20 20 21 20 15 17 20 18 19 18 18 18 18 19 20 23 24 26 28 29 30 32 32 33 33 31 31 32 32 30 33 34 35 31 31 38 41 39 45 54 61 72 85 94
25 21 22 21 18 21 22 28 27 19 16 21 18 16 17 19 18 18 16 16 18 19 22 26 27 30 32 32 33 33 30 34 35 34 32 34 34 36 32 34 44 50 46 43 52 53 63 80 94
20 30 34 23 27 23 24 35 23 22 17 20 18 17 17 19 16 14 14 15 16 18 20 20 22 25 29 30 32 32 33 35 37 36 36 35 35 34 35 38 47 51 51 51 57 63 62 64 80
35 33 30 34 29 26 24 35 26 21 17 17 18 18 18 18 16 14 13 14 15 16 16 17 19 22 25 28 30 33 35 37 37 37 37 35 34 35 40 41 45 54 59 61 63 64 59 70 56
27 30 33 37 34 30 34 34 28 28 22 19 19 19 19 18 19 12 12 12 12 12 11 11 14 16 20 25 28 30 33 34 37 38 37 37 37 38 36 42 50 55 62 59 55 62 56 60 50
27 32 37 38 33 35 35 40 35 33 34 29 20 20 20 20 16 12 12 12 12 12 12 11 12 12 15 19 22 23 27 29 34 38 38 39 39 37 35 44 48 56 60 58 56 60 66 61 51
28 35 50 44 33 37 42 46 36 22 24 33 24 23 23 18 14 14 14 13 12 13 14 13 14 16 17 22 23 26 30 36 38 38 38 41 41 32 36 47 52 52 62 58 56 59 71 78 75
37 38 38 40 42 44 60 52 32 16 16 20 24 24 21 22 17 15 13 12 12 12 12 14 16 17 18 23 30 33 37 40 39 38 39 40 33 32 38 44 52 54 59 56 56 61 67 82 77
51 33 34 41 62 66 58 61 31 37 16 15 17 21 19 19 16 14 14 13 14 14 15 15 17 19 21 26 33 36 38 42 39 42 40 31 33 36 39 44 49 56 56 57 57 62 69 72 86
44 35 40 37 80 83 62 74 50 38 16 14 14 15 14 16 16 18 17 16 16 20 19 20 20 20 21 25 31 38 43 44 42 33 30 29 33 38 41 45 53 54 56 56 58 59 63 68 74
35 54 38 62 83 75 73 73 63 31 15 14 16 18 21 20 16 17 19 22 32 38 38 32 22 21 22 27 30 39 43 33 28 27 30 34 36 45 46 52 56 55 60 58 57 59 62 64 70
60 79 78 71 80 71 62 67 66 38 37 14 17 20 19 18 23 28 36 41 43 46 46 43 26 25 27 31 29 28 27 26 28 30 35 40 42 50 54 56 58 58 57 59 60 59 62 63 69
70 84 78 61 76 71 48 68 58 39 21 20 20 21 28 34 34 41 45 47 52 52 51 48 38 32 32 35 30 26 24 27 30 34 38 42 45 48 56 62 60 60 58 60 59 61 64 66 69
68 75 57 75 93 93 73 63 56 25 23 44 44 39 47 51 54 56 54 56 56 54 54 54 47 39 37 33 27 26 27 29 34 37 41 46 48 49 58 63 63 62 62 60 60 59 64 66 65
71 78 69 88 68 83 70 80 71 32 28 44 58 60 61 64 64 66 64 59 56 56 58 59 56 41 35 39 33 32 33 33 37 42 44 48 50 53 57 61 67 66 64 63 63 64 63 64 65
72 78 77 84 88 85 94 81 74 61 58 66 64 66 72 71 68 70 66 60 60 63 63 62 67 50 55 43 41 38 34 39 45 48 51 54 58 61 63 64 70 72 69 66 64 64 63 66 72
87 78 74 86 80 93 90 84 82 83 74 81 80 80 76 74 68 70 67 67 69 70 68 71 74 67 52 44 39 34 38 45 52 56 60 64 67 68 70 68 71 76 74 71 69 69 70 70 71
Wind_Speed
7 3 2 4 5 6 2 1 1 1 0 1 0 2 3 4 2 2 9 5 5 1 7 13 14 15 17 19 20 22 22 23 23 23 23 24 21 22 21 21 24 24 19 19 17 10 10 12 14
7 4 3 3 5 4 3 2 4 3 3 1 2 2 2 2 3 6 7 6 5 1 7 11 11 13 15 18 19 20 22 23 23 23 23 24 24 20 22 20 22 24 22 21 20 10 13 13 15
3 4 4 4 4 4 5 3 5 3 2 2 2 4 3 4 4 11 9 8 7 3 7 8 9 11 14 16 18 19 20 22 23 24 24 23 23 22 21 22 20 22 21 19 23 13 14 15 15
2 5 5 5 3 1 5 4 3 5 1 3 4 4 3 1 7 10 12 10 4 3 5 7 8 12 13 15 17 18 19 21 23 25 25 25 24 23 23 22 23 22 22 23 22 25 11 16 16
3 3 5 4 2 3 2 3 3 5 3 3 2 3 4 2 12 14 11 8 3 4 4 6 8 10 10 13 15 16 18 20 23 24 25 27 26 25 23 23 22 24 22 23 21 27 22 10 16
4 3 5 3 3 2 2 1 2 1 1 2 3 4 4 11 13 12 9 7 4 1 3 5 6 8 9 10 13 14 17 19 20 22 23 25 27 26 25 23 22 23 24 23 24 23 26 13 18
6 4 4 4 5 2 5 3 3 3 1 2 5 3 1 9 11 11 8 6 4 1 3 4 6 7 8 9 11 13 15 17 18 21 22 24 27 27 26 25 24 23 24 22 23 22 23 16 9
4 4 4 3 5 3 4 3 5 3 2 2 4 4 4 10 16 11 7 5 3 4 4 3 5 7 9 9 10 13 15 16 18 20 23 25 27 29 28 28 26 25 24 25 22 23 21 16 15
2 5 2 5 6 3 3 3 0 1 3 2 4 4 3 15 17 10 7 7 7 7 7 7 6 7 9 10 12 13 15 18 20 21 23 24 26 28 30 29 26 26 25 24 22 22 20 14 16
5 4 3 2 2 3 3 2 2 1 2 4 2 3 11 18 15 11 9 8 8 9 13 11 9 9 11 11 13 13 15 17 19 20 23 24 25 26 29 30 29 27 25 24 21 18 18 16 13
4 3 3 2 2 2 3 1 3 2 4 7 7 7 9 12 11 9 8 9 10 9 10 14 11 11 13 13 14 14 15 17 18 20 23 24 25 26 31 33 32 30 28 25 23 18 16 20 12
6 5 3 3 2 1 1 3 4 6 5 4 7 7 9 7 9 10 12 13 12 11 11 12 12 13 15 17 16 16 15 16 18 20 22 23 25 27 32 34 34 31 27 24 26 23 16 21 15
4 2 4 2 2 2 1 4 5 8 8 5 6 7 7 6 6 8 10 11 13 14 14 16 15 16 15 16 16 16 16 15 17 18 21 21 24 25 31 33 32 30 26 22 22 22 22 17 17
2 4 3 1 1 2 3 2 3 4 3 10 7 7 6 6 8 7 8 12 13 15 16 16 18 17 17 18 18 17 17 17 18 19 20 19 21 21 31 31 30 28 27 24 20 21 21 20 21
5 2 1 3 3 2 2 0 6 5 0 8 9 7 5 8 8 11 10 10 11 13 13 15 16 17 20 20 19 19 19 19 19 20 20 19 20 23 31 30 26 24 26 26 22 20 18 17 20
3 4 5 2 8 4 4 8 4 4 6 8 8 6 5 6 9 9 8 10 9 12 13 12 13 15 18 20 21 21 21 22 21 21 19 20 21 29 26 27 24 24 26 22 21 19 22 18 20
7 1 4 7 5 4 5 9 5 4 6 7 7 7 6 7 8 11 8 8 7 9 8 10 12 15 17 20 22 23 22 22 21 22 19 21 26 27 25 26 22 22 21 17 16 20 20 22 20
4 4 5 5 4 3 6 17 13 9 9 9 9 8 7 7 10 11 10 7 6 7 7 10 13 15 16 19 22 24 25 26 25 21 19 23 25 25 26 26 20 18 17 16 18 17 18 21 19
0 2 4 5 2 7 2 10 18 10 4 8 9 8 8 8 8 11 11 9 8 11 12 12 14 15 16 19 21 26 27 29 30 24 22 22 25 27 23 24 21 17 17 19 19 19 19 22 11
1 3 4 7 4 3 5 15 5 6 2 6 9 8 9 4 4 10 12 11 13 16 16 16 17 17 18 20 23 24 27 29 29 29 27 25 24 27 22 22 22 20 17 19 19 16 17 15 7
0 1 3 5 9 1 8 6 5 1 2 3 5 6 6 9 8 7 11 13 15 20 22 22 20 19 20 22 22 24 26 27 30 30 31 28 26 24 21 20 23 22 17 19 19 16 13 11 16
4 2 1 5 5 2 5 3 2 4 4 5 3 3 6 6 4 5 7 10 13 18 19 20 18 17 18 18 19 20 23 26 30 29 30 31 27 24 21 19 21 23 21 20 19 14 12 11 14
4 2 2 1 3 4 5 4 7 4 6 3 1 1 2 1 3 6 8 9 17 22 24 22 19 18 18 18 20 19 20 22 25 28 31 33 32 25 23 21 19 23 23 22 19 18 14 13 13
4 1 2 3 3 3 4 3 5 1 3 3 3 6 7 7 4 6 11 16 21 23 24 25 24 21 19 19 22 20 18 21 25 30 31 31 31 29 25 20 19 20 21 21 22 20 17 15 14
6 5 4 5 4 4 3 3 8 4 2 5 7 8 7 5 7 7 10 18 22 23 25 26 22 23 20 19 21 21 21 22 24 27 29 29 31 28 26 22 20 20 21 21 19 20 19 16 15
3 4 4 4 2 5 1 5 4 2 6 8 8 6 2 5 6 8 13 16 18 21 24 25 23 23 20 20 21 22 23 24 24 25 28 28 28 31 29 26 22 22 21 20 20 19 20 17 15
1 2 2 5 0 3 3 7 7 7 5 7 7 2 5 7 8 8 13 18 20 22 27 29 26 22 20 20 21 22 24 25 24 24 26 27 27 30 27 25 23 22 21 21 22 21 20 18 19
3 1 3 3 2 5 5 5 5 7 9 6 5 7 8 8 7 7 13 19 22 24 29 30 24 20 17 19 20 21 25 24 24 24 27 28 28 28 30 30 26 23 23 23 20 20 19 23 22
2 2 3 2 3 4 3 6 6 8 8 6 3 8 9 8 8 7 14 21 23 24 29 32 27 19 20 20 22 24 26 26 25 25 26 26 25 26 28 28 27 24 22 22 23 24 24 23 21
3 5 5 4 4 2 3 7 1 4 7 4 6 9 9 5 9 9 16 20 21 23 27 29 27 19 22 25 27 28 28 27 25 25 25 24 24 25 26 27 28 24 23 23 23 25 22 21 21
Wind_Direction
3 12 81 42 61 66 95 144 91 130 120 241 236 54 99 66 62 192 143 126 152 2 352 357 14 15 16 15 15 12 11 8 7 7 7 6 1 1 360 0 357 0 354 351 342 280 214 210 193
5 58 61 76 83 77 258 208 177 194 187 322 71 85 61 93 105 142 149 149 173 91 354 9 22 20 23 21 21 20 15 14 11 10 8 7 7 2 359 357 353 357 357 352 350 292 223 202 197
49 44 77 88 97 154 180 193 183 191 161 108 108 57 96 140 119 151 138 150 142 81 21 41 31 29 27 24 24 23 22 20 17 14 12 10 7 6 1 357 352 350 356 348 352 344 248 200 206
66 30 35 78 103 216 183 176 149 147 6 54 130 111 66 26 165 167 149 153 147 75 11 58 39 33 28 22 22 23 21 22 20 17 15 13 8 2 3 1 357 347 354 355 347 357 299 203 212
61 64 65 80 125 146 165 183 143 172 177 176 176 164 116 74 133 145 156 166 191 106 20 51 46 38 31 26 20 19 19 21 19 16 13 12 11 4 4 359 358 354 348 350 343 349 354 246 214
43 92 66 155 186 150 193 185 106 95 60 122 94 114 204 165 159 159 151 150 141 92 3 12 33 38 31 31 18 17 19 20 18 14 11 10 8 6 3 1 358 354 350 345 346 338 344 351 227
107 80 150 130 171 184 205 173 167 173 180 218 158 156 199 207 194 169 167 167 167 252 304 347 359 13 16 22 14 12 15 14 13 10 8 7 5 5 3 359 357 355 351 342 342 329 332 328 247
96 90 105 174 182 219 183 143 155 167 204 126 142 197 227 214 182 175 179 196 239 262 281 298 336 343 347 349 352 354 0 1 2 2 2 1 2 2 1 359 356 354 350 347 335 329 321 309 265
92 64 141 172 155 167 189 160 320 46 123 205 206 170 229 159 168 175 182 206 229 232 249 260 290 319 329 331 335 341 347 348 349 351 356 356 359 358 356 356 355 356 348 344 327 326 324 310 280
64 90 173 357 41 159 164 173 178 164 162 239 218 46 134 157 171 186 203 223 237 251 233 235 260 289 316 321 326 332 336 338 342 344 349 352 353 356 354 353 352 355 354 344 328 309 317 334 317
17 110 150 22 96 42 135 223 328 166 242 223 199 174 163 173 191 211 230 237 244 254 230 230 249 285 304 311 317 321 324 332 338 340 345 345 346 349 353 352 351 352 351 346 337 309 313 324 333
86 44 86 167 25 54 178 321 309 203 229 217 162 154 173 184 209 230 244 249 248 249 252 247 254 274 291 303 307 308 311 322 332 336 340 339 343 347 349 347 347 346 346 345 343 328 311 311 332
73 133 60 77 66 306 348 260 245 251 238 166 152 156 165 188 236 253 263 271 258 253 255 252 254 268 277 285 290 298 303 311 321 329 335 336 339 337 342 340 339 338 340 343 344 330 292 307 320
81 84 101 94 337 347 304 264 20 268 206 226 179 189 192 203 232 267 269 269 258 256 252 250 259 274 275 274 278 285 296 307 314 323 330 330 330 329 336 334 330 331 333 333 335 333 320 296 314
135 72 48 13 4 355 325 244 225 247 94 185 185 205 209 231 243 245 259 271 272 269 269 259 264 273 272 274 275 279 289 299 308 318 323 323 324 324 328 330 325 324 327 328 334 338 328 314 297
37 56 9 27 359 11 33 275 248 159 150 176 193 216 228 252 242 252 253 261 263 263 265 280 287 285 278 280 281 282 288 298 303 311 313 318 319 322 327 327 324 320 321 324 327 334 332 322 294
12 350 349 324 29 322 32 277 262 153 187 199 211 223 232 257 259 244 240 251 256 255 271 285 288 285 285 286 288 288 288 289 296 304 304 314 323 330 325 319 321 323 322 324 330 323 329 311 302
320 343 322 260 349 2 263 268 286 269 206 218 222 224 230 239 241 231 231 236 248 264 272 283 284 286 286 287 288 290 292 294 297 297 297 311 325 327 321 314 315 317 322 324 324 323 316 313 308
105 252 263 266 46 346 235 282 295 309 215 205 221 220 231 236 256 240 231 239 251 263 268 277 285 294 283 283 288 294 296 300 301 297 299 309 321 323 321 311 312 312 305 315 322 321 325 321 333
239 290 289 283 344 355 329 307 295 326 309 196 201 225 233 233 220 223 239 257 266 275 276 279 281 291 295 284 284 289 292 292 292 295 299 308 315 320 318 311 306 305 290 304 315 316 325 314 341
353 194 319 255 321 245 321 316 6 286 55 112 183 207 204 214 211 228 249 266 276 277 280 280 284 293 295 288 283 279 279 281 284 290 297 305 311 316 313 305 301 301 289 299 306 308 308 314 314
310 135 278 290 20 285 17 273 307 327 63 64 66 128 176 195 203 237 249 284 293 300 300 289 285 285 294 293 279 273 272 275 284 294 300 304 307 310 309 305 300 296 291 288 293 298 290 293 299
262 340 261 95 74 37 336 68 267 330 44 19 76 226 230 323 306 298 301 309 321 316 309 293 284 285 296 297 288 279 271 274 287 295 301 305 306 307 305 304 296 290 290 287 282 283 283 274 278
327 22 86 57 110 27 260 98 286 206 140 104 57 53 49 44 7 318 329 326 322 329 324 311 285 281 287 298 290 281 277 287 296 301 303 305 306 307 307 302 296 291 288 282 280 276 277 276 274
31 45 339 357 8 223 192 22 243 261 341 143 104 64 41 350 330 321 318 325 331 329 324 310 287 280 284 292 285 285 290 296 299 300 301 303 304 302 304 302 296 287 284 284 277 273 271 275 272
20 128 142 252 272 281 3 239 243 189 111 90 83 96 64 323 303 288 295 312 322 326 322 311 292 281 283 291 288 293 299 302 301 299 298 298 298 298 300 297 292 287 279 275 273 272 266 265 265
306 53 184 104 45 42 243 286 314 151 141 119 125 154 284 286 275 275 302 318 329 327 328 324 302 287 289 298 294 296 302 306 303 301 298 295 294 294 295 292 288 284 282 273 266 267 268 259 262
116 174 37 8 334 291 283 278 234 195 197 202 25 348 309 278 293 312 319 321 326 325 331 331 313 290 297 301 301 304 308 305 302 301 296 294 293 292 292 293 289 281 273 269 268 268 267 265 260
29 4 32 131 137 205 290 260 218 209 175 191 247 294 280 282 306 309 306 311 318 322 330 332 322 298 310 321 317 315 312 308 305 304 300 298 294 290 289 290 287 278 270 267 266 266 265 263 264
160 193 154 141 255 189 173 266 253 201 183 185 263 276 274 299 326 312 301 304 313 322 329 320 319 307 319 320 318 316 315 313 311 308 302 297 290 290 286 287 284 273 266 262 257 257 251 250 249